Time,TemperatureF,DewpointF,PressureIn,WindDirection,WindDirectionDegrees,WindSpeedMPH,WindSpeedGustMPH,Humidity,HourlyPrecipIn,Conditions,Clouds,dailyrainin,SoftwareType,DateUTC
2013-07-27 00:01:00,64.9,64.9,29.47,SE,145,0.0,0.0,100,0.00,,---,0.24,VWS V14.01,2013-07-27 04:01:00,
2013-07-27 00:06:00,64.9,64.9,29.47,West,260,0.0,0.0,100,0.00,,---,0.00,VWS V14.01,2013-07-27 04:06:00,
2013-07-27 00:11:00,65.1,65.1,29.47,ENE,65,0.0,0.0,100,0.00,,---,0.00,VWS V14.01,2013-07-27 04:11:00,
2013-07-27 00:17:00,65.1,65.1,29.47,ENE,67,0.0,0.0,100,0.00,,---,0.00,VWS V14.01,2013-07-27 04:17:00,
2013-07-27 00:22:00,65.1,65.1,29.47,ENE,67,0.0,0.0,100,0.00,,---,0.00,VWS V14.01,2013-07-27 04:22:00,
2013-07-27 00:27:00,65.1,65.1,29.47,ENE,67,0.0,0.0,100,0.00,,---,0.00,VWS V14.01,2013-07-27 04:27:00,
2013-07-27 00:32:00,65.1,65.1,29.47,East,80,0.0,0.0,100,0.00,,---,0.00,VWS V14.01,2013-07-27 04:32:00,
2013-07-27 00:37:00,65.1,65.1,29.47,East,80,0.0,0.0,100,0.00,,---,0.00,VWS V14.01,2013-07-27 04:37:00,
2013-07-27 00:42:00,65.1,65.1,29.47,East,80,0.0,0.0,100,0.00,,---,0.00,VWS V14.01,2013-07-27 04:42:00,
2013-07-27 00:47:00,65.1,65.1,29.47,East,80,0.0,0.0,100,0.00,,---,0.00,VWS V14.01,2013-07-27 04:47:00,
2013-07-27 00:52:00,65.1,65.1,29.47,East,81,0.0,0.0,100,0.00,,---,0.00,VWS V14.01,2013-07-27 04:52:00,
2013-07-27 00:57:00,65.1,65.1,29.47,East,81,0.0,0.0,100,0.00,,---,0.00,VWS V14.01,2013-07-27 04:57:00,
2013-07-27 01:02:00,65.3,65.3,29.47,East,81,0.0,0.0,100,0.00,,---,0.00,VWS V14.01,2013-07-27 05:02:00,
2013-07-27 01:07:00,65.3,65.3,29.47,East,81,0.0,0.0,100,0.00,,---,0.00,VWS V14.01,2013-07-27 05:07:00,
2013-07-27 01:12:00,65.3,65.3,29.47,East,81,0.0,0.0,100,0.00,,---,0.00,VWS V14.01,2013-07-27 05:12:00,
2013-07-27 01:17:00,65.5,65.5,29.47,SSW,207,0.0,0.0,100,0.00,,---,0.00,VWS V14.01,2013-07-27 05:17:00,
2013-07-27 01:22:00,65.5,65.5,29.47,SSW,204,0.0,0.0,100,0.00,,---,0.00,VWS V14.01,2013-07-27 05:22:00,
2013-07-27 01:27:00,65.5,65.5,29.47,ESE,106,0.0,0.0,100,0.00,,---,0.00,VWS V14.01,2013-07-27 05:27:00,
2013-07-27 01:32:00,65.7,65.7,29.47,ESE,106,0.0,0.0,100,0.00,,---,0.00,VWS V14.01,2013-07-27 05:32:00,
2013-07-27 01:37:00,65.7,65.7,29.47,ESE,108,0.0,0.0,100,0.00,,---,0.00,VWS V14.01,2013-07-27 05:37:00,
2013-07-27 01:42:00,65.7,65.7,29.47,ESE,121,0.0,0.0,100,0.00,,---,0.00,VWS V14.01,2013-07-27 05:42:00,
2013-07-27 01:47:00,65.7,65.7,29.47,SE,124,0.0,0.0,100,0.00,,---,0.00,VWS V14.01,2013-07-27 05:47:00,
2013-07-27 01:52:00,65.7,65.7,29.47,SE,136,0.0,0.0,100,0.00,,---,0.00,VWS V14.01,2013-07-27 05:52:00,
2013-07-27 01:57:00,65.7,65.7,29.47,SE,145,0.0,0.0,100,0.00,,---,0.00,VWS V14.01,2013-07-27 05:57:00,
2013-07-27 02:02:00,65.7,65.7,29.47,East,95,0.0,0.0,100,0.00,,---,0.00,VWS V14.01,2013-07-27 06:02:00,
2013-07-27 02:07:00,65.8,65.8,29.47,East,95,0.0,0.0,100,0.00,,---,0.00,VWS V14.01,2013-07-27 06:07:00,
2013-07-27 02:12:00,65.8,65.8,29.47,East,95,0.0,0.0,100,0.00,,---,0.00,VWS V14.01,2013-07-27 06:12:00,
2013-07-27 02:17:00,65.8,65.8,29.47,East,95,0.0,0.0,100,0.00,,---,0.00,VWS V14.01,2013-07-27 06:17:00,
2013-07-27 02:22:00,65.8,65.8,29.47,East,95,0.0,0.0,100,0.00,,---,0.00,VWS V14.01,2013-07-27 06:22:00,
2013-07-27 02:27:00,66.0,66.0,29.47,East,95,0.0,0.0,100,0.00,,---,0.00,VWS V14.01,2013-07-27 06:27:00,
2013-07-27 02:32:00,66.0,66.0,29.47,ESE,114,0.0,0.0,100,0.00,,---,0.00,VWS V14.01,2013-07-27 06:32:00,
2013-07-27 02:37:00,66.2,66.2,29.47,ENE,73,0.0,0.0,100,0.00,,---,0.00,VWS V14.01,2013-07-27 06:37:00,
2013-07-27 02:42:00,66.4,66.4,29.47,East,84,0.0,0.0,100,0.00,,---,0.00,VWS V14.01,2013-07-27 06:42:00,
2013-07-27 02:47:00,66.4,66.4,29.47,East,84,0.0,0.0,100,0.00,,---,0.00,VWS V14.01,2013-07-27 06:47:00,
2013-07-27 02:52:00,66.4,66.4,29.47,East,84,0.0,0.0,100,0.00,,---,0.00,VWS V14.01,2013-07-27 06:52:00,
2013-07-27 02:57:00,66.4,66.4,29.47,ESE,112,0.0,0.0,100,0.00,,---,0.00,VWS V14.01,2013-07-27 06:57:00,
2013-07-27 03:02:00,66.6,66.6,29.47,South,186,4.5,4.5,100,0.00,,---,0.00,VWS V14.01,2013-07-27 07:02:00,
2013-07-27 03:07:00,66.6,66.6,29.47,ENE,72,0.0,0.0,100,0.00,,---,0.00,VWS V14.01,2013-07-27 07:07:00,
2013-07-27 03:12:00,66.7,66.7,29.47,ENE,72,0.0,0.0,100,0.00,,---,0.00,VWS V14.01,2013-07-27 07:12:00,
2013-07-27 03:17:00,66.6,66.6,29.47,ENE,71,0.0,0.0,100,0.00,,---,0.00,VWS V14.01,2013-07-27 07:17:00,
2013-07-27 03:22:00,66.7,66.7,29.47,ENE,71,0.0,0.0,100,0.00,,---,0.00,VWS V14.01,2013-07-27 07:22:00,
2013-07-27 03:27:00,66.7,66.7,29.47,NW,320,0.0,0.0,100,0.00,,---,0.00,VWS V14.01,2013-07-27 07:27:00,
2013-07-27 03:32:00,66.7,66.7,29.47,NW,320,0.0,0.0,100,0.00,,---,0.00,VWS V14.01,2013-07-27 07:32:00,
2013-07-27 03:37:00,66.7,66.7,29.47,East,91,0.0,0.0,100,0.00,,---,0.00,VWS V14.01,2013-07-27 07:37:00,
2013-07-27 03:42:00,66.9,66.9,29.47,North,2,0.0,0.0,100,0.00,,---,0.00,VWS V14.01,2013-07-27 07:42:00,
2013-07-27 03:47:00,66.9,66.9,29.47,North,2,0.0,0.0,100,0.00,,---,0.00,VWS V14.01,2013-07-27 07:47:00,
2013-07-27 03:52:00,66.9,66.9,29.47,South,178,6.3,6.3,100,0.00,,---,0.00,VWS V14.01,2013-07-27 07:52:00,
2013-07-27 03:57:00,67.1,67.1,29.47,SSE,168,0.0,0.0,100,0.00,,---,0.00,VWS V14.01,2013-07-27 07:57:00,
2013-07-27 04:02:00,67.1,67.1,29.47,WSW,246,0.0,0.0,100,0.00,,---,0.00,VWS V14.01,2013-07-27 08:02:00,
2013-07-27 04:07:00,67.1,67.1,29.47,WSW,246,0.0,0.0,100,0.00,,---,0.00,VWS V14.01,2013-07-27 08:07:00,
2013-07-27 04:12:00,67.1,67.1,29.47,WSW,249,0.0,0.0,100,0.00,,---,0.00,VWS V14.01,2013-07-27 08:12:00,
2013-07-27 04:17:00,66.9,66.9,29.47,WSW,249,0.0,0.0,100,0.00,,---,0.00,VWS V14.01,2013-07-27 08:17:00,
2013-07-27 04:22:00,66.9,66.9,29.47,WSW,252,0.0,0.0,100,0.00,,---,0.00,VWS V14.01,2013-07-27 08:22:00,
2013-07-27 04:27:00,66.9,66.9,29.47,WSW,252,0.0,0.0,100,0.00,,---,0.00,VWS V14.01,2013-07-27 08:27:00,
2013-07-27 04:32:00,66.9,66.9,29.47,WSW,252,0.0,0.0,100,0.00,,---,0.00,VWS V14.01,2013-07-27 08:32:00,
2013-07-27 04:37:00,66.9,66.9,29.47,South,190,0.0,0.0,100,0.00,,---,0.00,VWS V14.01,2013-07-27 08:37:00,
2013-07-27 04:42:00,66.9,66.9,29.47,South,190,0.0,0.0,100,0.00,,---,0.00,VWS V14.01,2013-07-27 08:42:00,
2013-07-27 04:47:00,66.9,66.9,29.47,South,190,0.0,0.0,100,0.00,,---,0.00,VWS V14.01,2013-07-27 08:47:00,
2013-07-27 04:52:00,66.7,66.7,29.47,South,190,0.0,0.0,100,0.00,,---,0.00,VWS V14.01,2013-07-27 08:52:00,
2013-07-27 04:57:00,66.7,66.7,29.47,SSE,163,0.0,0.0,100,0.00,,---,0.00,VWS V14.01,2013-07-27 08:57:00,
2013-07-27 05:02:00,66.7,66.7,29.47,SSE,163,0.0,0.0,100,0.00,,---,0.00,VWS V14.01,2013-07-27 09:02:00,
2013-07-27 05:07:00,66.7,66.7,29.47,SSE,163,0.0,0.0,100,0.00,,---,0.00,VWS V14.01,2013-07-27 09:07:00,
2013-07-27 05:12:00,66.6,66.6,29.47,SSE,163,0.0,0.0,100,0.00,,---,0.00,VWS V14.01,2013-07-27 09:12:00,
2013-07-27 05:17:00,66.6,66.6,29.47,SSE,163,0.0,0.0,100,0.00,,---,0.00,VWS V14.01,2013-07-27 09:17:00,
2013-07-27 05:22:00,66.6,66.6,29.47,SSE,163,0.0,0.0,100,0.00,,---,0.00,VWS V14.01,2013-07-27 09:22:00,
2013-07-27 05:27:00,66.6,66.6,29.47,SSE,163,0.0,0.0,100,0.00,,---,0.00,VWS V14.01,2013-07-27 09:27:00,
2013-07-27 05:32:00,66.7,66.7,29.47,SSE,163,0.0,0.0,100,0.00,,---,0.00,VWS V14.01,2013-07-27 09:32:00,
2013-07-27 05:37:00,66.7,66.7,29.47,SSE,163,0.0,0.0,100,0.00,,---,0.00,VWS V14.01,2013-07-27 09:37:00,
2013-07-27 05:42:00,66.7,66.7,29.47,SSE,163,0.0,0.0,100,0.00,,---,0.00,VWS V14.01,2013-07-27 09:42:00,
2013-07-27 05:47:00,66.9,66.9,29.47,SSE,163,0.0,0.0,100,0.00,,---,0.00,VWS V14.01,2013-07-27 09:47:00,
2013-07-27 05:52:00,66.9,66.9,29.47,SSE,163,0.0,0.0,100,0.00,,---,0.00,VWS V14.01,2013-07-27 09:52:00,
2013-07-27 05:57:00,67.1,67.1,29.47,SSE,163,0.0,0.0,100,0.00,,---,0.00,VWS V14.01,2013-07-27 09:57:00,
2013-07-27 06:02:00,67.1,67.1,29.47,SSE,163,0.0,0.0,100,0.00,,---,0.00,VWS V14.01,2013-07-27 10:02:00,
2013-07-27 06:07:00,67.3,67.3,29.47,SSE,163,0.0,0.0,100,0.00,,---,0.00,VWS V14.01,2013-07-27 10:07:00,
2013-07-27 06:12:00,67.3,67.3,29.47,SSE,163,0.0,0.0,100,0.00,,---,0.00,VWS V14.01,2013-07-27 10:12:00,
2013-07-27 06:17:00,67.5,67.5,29.47,SSE,163,0.0,0.0,100,0.00,,---,0.00,VWS V14.01,2013-07-27 10:17:00,
2013-07-27 06:22:00,67.5,67.5,29.47,SSE,163,0.0,0.0,100,0.00,,---,0.00,VWS V14.01,2013-07-27 10:22:00,
2013-07-27 06:27:00,67.6,67.6,29.47,SSE,163,0.0,0.0,100,0.00,,---,0.00,VWS V14.01,2013-07-27 10:27:00,
2013-07-27 06:32:00,67.6,67.6,29.47,SSE,163,0.0,0.0,100,0.00,,---,0.00,VWS V14.01,2013-07-27 10:32:00,
2013-07-27 06:37:00,67.6,67.6,29.47,SE,141,0.0,0.0,100,0.00,,---,0.00,VWS V14.01,2013-07-27 10:37:00,
2013-07-27 06:42:00,67.8,67.8,29.47,SE,141,0.0,0.0,100,0.00,,---,0.00,VWS V14.01,2013-07-27 10:42:00,
2013-07-27 06:47:00,67.8,67.8,29.47,SE,125,0.0,0.0,100,0.00,,---,0.00,VWS V14.01,2013-07-27 10:47:00,
2013-07-27 06:52:00,68.0,68.0,29.47,SE,125,0.0,0.0,100,0.00,,---,0.00,VWS V14.01,2013-07-27 10:52:00,
2013-07-27 06:57:00,68.0,68.0,29.47,SE,125,0.0,0.0,100,0.00,,---,0.00,VWS V14.01,2013-07-27 10:57:00,
2013-07-27 07:02:00,68.2,68.2,29.47,SE,125,0.0,0.0,100,0.00,,---,0.00,VWS V14.01,2013-07-27 11:02:00,
2013-07-27 07:07:00,68.4,68.4,29.47,SE,125,0.0,0.0,100,0.00,,---,0.00,VWS V14.01,2013-07-27 11:07:00,
2013-07-27 07:12:00,68.5,68.5,29.47,SW,231,0.0,0.0,100,0.00,,---,0.00,VWS V14.01,2013-07-27 11:12:00,
2013-07-27 07:17:00,68.5,68.5,29.47,SW,231,0.0,0.0,100,0.00,,---,0.00,VWS V14.01,2013-07-27 11:17:00,
2013-07-27 07:22:00,68.7,68.7,29.47,SW,231,0.0,0.0,100,0.00,,---,0.00,VWS V14.01,2013-07-27 11:22:00,
2013-07-27 07:27:00,68.9,68.9,29.47,SW,234,0.0,0.0,100,0.00,,---,0.00,VWS V14.01,2013-07-27 11:27:00,
2013-07-27 07:32:00,69.1,69.1,29.47,SSW,207,0.0,0.0,100,0.00,,---,0.00,VWS V14.01,2013-07-27 11:32:00,
2013-07-27 07:37:00,69.1,69.1,29.47,SSW,207,0.0,0.0,100,0.00,,---,0.00,VWS V14.01,2013-07-27 11:37:00,
2013-07-27 07:42:00,69.3,69.3,29.47,North,5,0.0,0.0,100,0.00,,---,0.00,VWS V14.01,2013-07-27 11:42:00,
2013-07-27 07:47:00,69.3,69.3,29.47,ESE,102,0.0,0.0,100,0.00,,---,0.00,VWS V14.01,2013-07-27 11:47:00,
2013-07-27 07:52:00,69.3,69.3,29.47,ESE,102,0.0,0.0,100,0.00,,---,0.00,VWS V14.01,2013-07-27 11:52:00,
2013-07-27 07:57:00,69.3,69.3,29.47,East,90,0.0,0.0,100,0.00,,---,0.00,VWS V14.01,2013-07-27 11:57:00,
2013-07-27 08:02:00,69.1,69.1,29.47,SSE,167,0.0,0.0,100,0.00,,---,0.00,VWS V14.01,2013-07-27 12:02:00,
2013-07-27 08:07:00,69.1,69.1,29.47,SSE,162,0.0,0.0,100,0.00,,---,0.00,VWS V14.01,2013-07-27 12:07:00,
2013-07-27 08:12:00,69.1,69.1,29.47,SSE,162,0.0,0.0,100,0.00,,---,0.00,VWS V14.01,2013-07-27 12:12:00,
2013-07-27 08:17:00,69.1,69.1,29.50,SSE,162,0.0,0.0,100,0.00,,---,0.00,VWS V14.01,2013-07-27 12:17:00,
2013-07-27 08:22:00,69.3,69.3,29.50,SSE,162,0.0,0.0,100,0.00,,---,0.00,VWS V14.01,2013-07-27 12:22:00,
2013-07-27 08:27:00,69.4,69.4,29.50,ENE,60,0.0,0.0,100,0.00,,---,0.00,VWS V14.01,2013-07-27 12:27:00,
2013-07-27 08:32:00,69.6,69.6,29.50,SSE,149,0.0,0.0,100,0.00,,---,0.00,VWS V14.01,2013-07-27 12:32:00,
2013-07-27 08:37:00,69.8,69.8,29.50,SSW,197,0.0,0.0,100,0.00,,---,0.00,VWS V14.01,2013-07-27 12:37:00,
2013-07-27 08:42:00,70.0,70.0,29.50,SSW,197,0.0,0.0,100,0.00,,---,0.00,VWS V14.01,2013-07-27 12:42:00,
2013-07-27 08:47:00,70.2,70.2,29.50,SSE,147,0.0,0.0,100,0.00,,---,0.00,VWS V14.01,2013-07-27 12:47:00,
2013-07-27 08:52:00,70.3,70.3,29.50,SSE,147,0.0,0.0,100,0.00,,---,0.00,VWS V14.01,2013-07-27 12:52:00,
2013-07-27 08:57:00,70.5,69.0,29.50,NNE,27,0.0,0.0,95,0.00,,---,0.00,VWS V14.01,2013-07-27 12:57:00,
2013-07-27 09:02:00,70.7,67.6,29.50,SE,144,0.0,0.0,90,0.00,,---,0.00,VWS V14.01,2013-07-27 13:02:00,
2013-07-27 09:07:00,71.4,64.6,29.50,North,0,0.0,0.0,79,0.00,,---,0.00,VWS V14.01,2013-07-27 13:07:00,
2013-07-27 09:12:00,71.8,66.0,29.50,North,0,0.0,0.0,82,0.00,,---,0.00,VWS V14.01,2013-07-27 13:12:00,
2013-07-27 09:17:00,72.3,60.8,29.50,SSE,156,0.0,0.0,67,0.00,,---,0.00,VWS V14.01,2013-07-27 13:17:00,
2013-07-27 09:22:00,72.0,58.2,29.50,East,84,0.0,0.0,62,0.00,,---,0.00,VWS V14.01,2013-07-27 13:22:00,
2013-07-27 09:27:00,72.1,56.6,29.50,South,169,0.0,0.0,58,0.00,,---,0.00,VWS V14.01,2013-07-27 13:27:00,
2013-07-27 09:32:00,72.3,58.6,29.50,NNE,16,0.0,0.0,62,0.00,,---,0.00,VWS V14.01,2013-07-27 13:32:00,
2013-07-27 09:37:00,72.1,57.5,29.50,SE,129,0.0,0.0,60,0.00,,---,0.00,VWS V14.01,2013-07-27 13:37:00,
2013-07-27 09:42:00,72.3,57.2,29.50,NE,47,0.0,0.0,59,0.00,,---,0.00,VWS V14.01,2013-07-27 13:42:00,
2013-07-27 09:47:00,72.7,58.9,29.50,SSE,160,0.0,0.0,62,0.00,,---,0.00,VWS V14.01,2013-07-27 13:47:00,
2013-07-27 09:52:00,72.9,56.3,29.50,SSE,160,0.0,0.0,56,0.00,,---,0.00,VWS V14.01,2013-07-27 13:52:00,
2013-07-27 09:57:00,73.4,57.3,29.50,SSE,160,0.0,0.0,57,0.00,,---,0.00,VWS V14.01,2013-07-27 13:57:00,
2013-07-27 10:02:00,74.1,57.9,29.50,SSE,161,0.0,0.0,57,0.00,,---,0.00,VWS V14.01,2013-07-27 14:02:00,
2013-07-27 10:07:00,74.3,58.1,29.50,South,180,0.0,0.0,57,0.00,,---,0.00,VWS V14.01,2013-07-27 14:07:00,
2013-07-27 10:12:00,75.2,56.4,29.50,SSW,195,0.0,0.0,52,0.00,,---,0.00,VWS V14.01,2013-07-27 14:12:00,
2013-07-27 10:17:00,75.4,56.5,29.50,NNE,32,0.0,0.0,52,0.00,,---,0.00,VWS V14.01,2013-07-27 14:17:00,
2013-07-27 10:22:00,76.1,56.7,29.50,NNW,328,0.0,0.0,51,0.00,,---,0.00,VWS V14.01,2013-07-27 14:22:00,
2013-07-27 10:27:00,76.5,57.0,29.50,NNE,29,0.0,0.0,51,0.00,,---,0.00,VWS V14.01,2013-07-27 14:27:00,
2013-07-27 10:32:00,78.1,58.0,29.50,NNE,12,0.0,0.0,50,0.00,,---,0.00,VWS V14.01,2013-07-27 14:32:00,
2013-07-27 10:37:00,78.8,58.6,29.50,NNE,12,0.0,0.0,50,0.00,,---,0.00,VWS V14.01,2013-07-27 14:37:00,
2013-07-27 10:42:00,79.7,55.9,29.50,NNE,12,0.0,0.0,44,0.00,,---,0.00,VWS V14.01,2013-07-27 14:42:00,
2013-07-27 10:47:00,80.8,56.9,29.50,NNE,12,0.0,0.0,44,0.00,,---,0.00,VWS V14.01,2013-07-27 14:47:00,
2013-07-27 10:52:00,81.7,57.7,29.50,NNE,12,0.0,0.0,44,0.00,,---,0.00,VWS V14.01,2013-07-27 14:52:00,
2013-07-27 10:57:00,81.9,56.5,29.50,NNE,12,0.0,0.0,42,0.00,,---,0.00,VWS V14.01,2013-07-27 14:57:00,
2013-07-27 11:02:00,82.2,56.9,29.50,NNE,12,0.0,0.0,42,0.00,,---,0.00,VWS V14.01,2013-07-27 15:02:00,
2013-07-27 11:07:00,82.6,56.5,29.50,NNE,12,0.0,0.0,41,0.00,,---,0.00,VWS V14.01,2013-07-27 15:07:00,
2013-07-27 11:12:00,83.3,57.2,29.50,NNE,12,0.0,0.0,41,0.00,,---,0.00,VWS V14.01,2013-07-27 15:12:00,
2013-07-27 11:17:00,83.3,56.5,29.50,NNE,12,0.0,0.0,40,0.00,,---,0.00,VWS V14.01,2013-07-27 15:17:00,
2013-07-27 11:22:00,83.3,56.5,29.50,NNE,12,0.0,0.0,40,0.00,,---,0.00,VWS V14.01,2013-07-27 15:22:00,
2013-07-27 11:27:00,84.2,56.6,29.50,SW,217,0.0,0.0,39,0.00,,---,0.00,VWS V14.01,2013-07-27 15:27:00,
2013-07-27 11:32:00,84.6,56.9,29.50,SW,217,0.0,0.0,39,0.00,,---,0.00,VWS V14.01,2013-07-27 15:32:00,
2013-07-27 11:37:00,85.3,57.5,29.50,SW,217,0.0,0.0,39,0.00,,---,0.00,VWS V14.01,2013-07-27 15:37:00,
2013-07-27 11:42:00,85.5,57.7,29.50,SW,217,0.0,0.0,39,0.00,,---,0.00,VWS V14.01,2013-07-27 15:42:00,
2013-07-27 11:47:00,85.5,58.4,29.50,SW,217,0.0,0.0,40,0.00,,---,0.00,VWS V14.01,2013-07-27 15:47:00,
2013-07-27 11:52:00,85.3,57.5,29.50,SW,217,0.0,0.0,39,0.00,,---,0.00,VWS V14.01,2013-07-27 15:52:00,
2013-07-27 11:57:00,85.6,57.9,29.50,SW,217,0.0,0.0,39,0.00,,---,0.00,VWS V14.01,2013-07-27 15:57:00,
2013-07-27 12:02:00,86.2,58.3,29.50,SW,217,0.0,0.0,39,0.00,,---,0.00,VWS V14.01,2013-07-27 16:02:00,
2013-07-27 12:07:00,86.2,58.3,29.50,SW,217,0.0,0.0,39,0.00,,---,0.00,VWS V14.01,2013-07-27 16:07:00,
2013-07-27 12:12:00,86.2,58.3,29.50,SW,217,0.0,0.0,39,0.00,,---,0.00,VWS V14.01,2013-07-27 16:12:00,
2013-07-27 12:17:00,85.8,58.0,29.50,NNW,331,0.0,0.0,39,0.00,,---,0.00,VWS V14.01,2013-07-27 16:17:00,
2013-07-27 12:22:00,85.8,58.0,29.50,NNW,337,0.0,0.0,39,0.00,,---,0.00,VWS V14.01,2013-07-27 16:22:00,
2013-07-27 12:27:00,86.0,57.5,29.50,NW,318,0.0,0.0,38,0.00,,---,0.00,VWS V14.01,2013-07-27 16:27:00,
2013-07-27 12:32:00,86.0,57.5,29.50,SE,144,0.0,0.0,38,0.00,,---,0.00,VWS V14.01,2013-07-27 16:32:00,
2013-07-27 12:37:00,86.2,58.3,29.50,NW,310,0.0,0.0,39,0.00,,---,0.00,VWS V14.01,2013-07-27 16:37:00,
2013-07-27 12:42:00,86.2,58.3,29.50,SSE,166,0.0,0.0,39,0.00,,---,0.00,VWS V14.01,2013-07-27 16:42:00,
2013-07-27 12:47:00,86.2,56.1,29.50,SSE,158,0.0,0.0,36,0.00,,---,0.00,VWS V14.01,2013-07-27 16:47:00,
2013-07-27 12:52:00,85.8,57.3,29.50,NNE,20,0.0,0.0,38,0.00,,---,0.00,VWS V14.01,2013-07-27 16:52:00,
2013-07-27 12:57:00,85.8,57.3,29.50,SW,232,0.0,0.0,38,0.00,,---,0.00,VWS V14.01,2013-07-27 16:57:00,
2013-07-27 13:02:00,85.8,57.3,29.47,SE,130,0.0,0.0,38,0.00,,---,0.00,VWS V14.01,2013-07-27 17:02:00,
2013-07-27 13:07:00,85.8,57.3,29.47,ENE,77,0.0,0.0,38,0.00,,---,0.00,VWS V14.01,2013-07-27 17:07:00,
2013-07-27 13:12:00,85.6,57.1,29.47,WSW,254,0.0,0.0,38,0.00,,---,0.00,VWS V14.01,2013-07-27 17:12:00,
2013-07-27 13:17:00,85.5,57.0,29.47,WSW,250,0.0,0.0,38,0.00,,---,0.00,VWS V14.01,2013-07-27 17:17:00,
2013-07-27 13:22:00,85.8,57.3,29.47,SSE,153,0.0,0.0,38,0.00,,---,0.00,VWS V14.01,2013-07-27 17:22:00,
2013-07-27 13:27:00,85.8,58.0,29.47,WSW,253,0.0,0.0,39,0.00,,---,0.00,VWS V14.01,2013-07-27 17:27:00,
2013-07-27 13:32:00,85.8,57.3,29.47,WSW,246,0.0,0.0,38,0.00,,---,0.00,VWS V14.01,2013-07-27 17:32:00,
2013-07-27 13:37:00,85.3,56.8,29.47,West,275,0.0,0.0,38,0.00,,---,0.00,VWS V14.01,2013-07-27 17:37:00,
2013-07-27 13:42:00,85.5,57.0,29.47,West,267,0.0,0.0,38,0.00,,---,0.00,VWS V14.01,2013-07-27 17:42:00,
2013-07-27 13:47:00,85.6,57.1,29.47,SSW,196,0.0,0.0,38,0.00,,---,0.00,VWS V14.01,2013-07-27 17:47:00,
2013-07-27 13:52:00,85.6,57.1,29.47,SSW,196,0.0,0.0,38,0.00,,---,0.00,VWS V14.01,2013-07-27 17:52:00,
2013-07-27 13:57:00,85.5,57.0,29.47,SSE,162,0.0,0.0,38,0.00,,---,0.00,VWS V14.01,2013-07-27 17:57:00,
2013-07-27 14:02:00,84.7,56.3,29.47,NW,323,0.0,0.0,38,0.00,,---,0.00,VWS V14.01,2013-07-27 18:02:00,
2013-07-27 14:07:00,84.6,56.2,29.47,NNW,343,0.0,0.0,38,0.00,,---,0.00,VWS V14.01,2013-07-27 18:07:00,
2013-07-27 14:12:00,84.2,55.9,29.47,SSW,196,0.0,0.0,38,0.00,,---,0.00,VWS V14.01,2013-07-27 18:12:00,
2013-07-27 14:17:00,84.4,56.7,29.47,ESE,112,0.0,0.0,39,0.00,,---,0.00,VWS V14.01,2013-07-27 18:17:00,
2013-07-27 14:22:00,84.4,56.7,29.47,North,357,0.0,0.0,39,0.00,,---,0.00,VWS V14.01,2013-07-27 18:22:00,
2013-07-27 14:27:00,82.8,55.3,29.47,WSW,256,0.0,0.0,39,0.00,,---,0.00,VWS V14.01,2013-07-27 18:27:00,
2013-07-27 14:32:00,82.6,55.1,29.47,WSW,243,0.0,0.0,39,0.00,,---,0.00,VWS V14.01,2013-07-27 18:32:00,
2013-07-27 14:37:00,82.2,55.5,29.47,ENE,62,0.0,0.0,40,0.00,,---,0.00,VWS V14.01,2013-07-27 18:37:00,
2013-07-27 14:42:00,82.2,55.5,29.47,SE,137,0.0,0.0,40,0.00,,---,0.00,VWS V14.01,2013-07-27 18:42:00,
2013-07-27 14:47:00,82.8,56.0,29.47,West,259,0.0,0.0,40,0.00,,---,0.00,VWS V14.01,2013-07-27 18:47:00,
2013-07-27 14:52:00,83.1,56.3,29.47,SE,143,0.0,0.0,40,0.00,,---,0.00,VWS V14.01,2013-07-27 18:52:00,
2013-07-27 14:57:00,83.3,55.8,29.47,South,179,0.0,0.0,39,0.00,,---,0.00,VWS V14.01,2013-07-27 18:57:00,
2013-07-27 15:02:00,83.3,55.8,29.47,WSW,257,0.0,0.0,39,0.00,,---,0.00,VWS V14.01,2013-07-27 19:02:00,
2013-07-27 15:07:00,82.9,56.2,29.47,West,260,0.0,0.0,40,0.00,,---,0.00,VWS V14.01,2013-07-27 19:07:00,
2013-07-27 15:12:00,82.9,56.2,29.47,North,353,0.0,0.0,40,0.00,,---,0.00,VWS V14.01,2013-07-27 19:12:00,
2013-07-27 15:17:00,83.3,55.8,29.47,NW,313,0.0,0.0,39,0.00,,---,0.00,VWS V14.01,2013-07-27 19:17:00,
2013-07-27 15:22:00,83.3,55.8,29.47,SSW,193,0.0,0.0,39,0.00,,---,0.00,VWS V14.01,2013-07-27 19:22:00,
2013-07-27 15:27:00,81.5,54.9,29.47,SSE,153,0.0,0.0,40,0.00,,---,0.00,VWS V14.01,2013-07-27 19:27:00,
2013-07-27 15:32:00,80.8,54.2,29.47,East,93,0.0,0.0,40,0.00,,---,0.00,VWS V14.01,2013-07-27 19:32:00,
2013-07-27 15:37:00,80.1,54.3,29.47,North,353,0.0,0.0,41,0.00,,---,0.00,VWS V14.01,2013-07-27 19:37:00,
2013-07-27 15:42:00,79.7,54.6,29.47,SW,227,0.0,0.0,42,0.00,,---,0.00,VWS V14.01,2013-07-27 19:42:00,
2013-07-27 15:47:00,79.7,55.2,29.47,North,357,0.0,0.0,43,0.00,,---,0.00,VWS V14.01,2013-07-27 19:47:00,
2013-07-27 15:52:00,79.2,54.1,29.47,SE,124,0.0,0.0,42,0.00,,---,0.00,VWS V14.01,2013-07-27 19:52:00,
2013-07-27 15:57:00,78.8,55.1,29.47,North,353,0.0,0.0,44,0.00,,---,0.00,VWS V14.01,2013-07-27 19:57:00,
2013-07-27 16:02:00,78.4,56.0,29.47,ENE,76,0.0,0.0,46,0.00,,---,0.00,VWS V14.01,2013-07-27 20:02:00,
2013-07-27 16:07:00,78.1,55.6,29.47,WSW,254,0.0,0.0,46,0.00,,---,0.00,VWS V14.01,2013-07-27 20:07:00,
2013-07-27 16:12:00,77.9,54.9,29.47,NNE,12,0.0,0.0,45,0.00,,---,0.00,VWS V14.01,2013-07-27 20:12:00,
2013-07-27 16:17:00,77.7,54.1,29.47,North,11,0.0,0.0,44,0.00,,---,0.00,VWS V14.01,2013-07-27 20:17:00,
2013-07-27 16:22:00,77.4,54.4,29.47,NW,325,0.0,0.0,45,0.00,,---,0.00,VWS V14.01,2013-07-27 20:22:00,
2013-07-27 16:27:00,77.0,54.7,29.47,WSW,253,0.0,0.0,46,0.00,,---,0.00,VWS V14.01,2013-07-27 20:27:00,
2013-07-27 16:32:00,76.8,55.1,29.47,North,0,0.0,0.0,47,0.00,,---,0.00,VWS V14.01,2013-07-27 20:32:00,
2013-07-27 16:37:00,76.1,55.6,29.47,WNW,282,0.0,0.0,49,0.00,,---,0.00,VWS V14.01,2013-07-27 20:37:00,
2013-07-27 16:42:00,75.9,57.0,29.47,NNW,338,0.0,0.0,52,0.00,,---,0.00,VWS V14.01,2013-07-27 20:42:00,
2013-07-27 16:47:00,75.6,56.7,29.47,WSW,245,0.0,0.0,52,0.00,,---,0.00,VWS V14.01,2013-07-27 20:47:00,
2013-07-27 16:52:00,75.6,56.2,29.47,WSW,252,0.0,0.0,51,0.00,,---,0.00,VWS V14.01,2013-07-27 20:52:00,
2013-07-27 16:57:00,75.4,56.5,29.47,WSW,250,0.0,0.0,52,0.00,,---,0.00,VWS V14.01,2013-07-27 20:57:00,
2013-07-27 17:02:00,75.7,56.3,29.47,WSW,238,0.0,0.0,51,0.00,,---,0.00,VWS V14.01,2013-07-27 21:02:00,
2013-07-27 17:07:00,76.5,57.0,29.47,SSW,203,0.0,0.0,51,0.00,,---,0.00,VWS V14.01,2013-07-27 21:07:00,
2013-07-27 17:12:00,76.5,56.5,29.47,WNW,285,0.0,0.0,50,0.00,,---,0.00,VWS V14.01,2013-07-27 21:12:00,
2013-07-27 17:17:00,76.3,56.3,29.44,WNW,283,0.0,0.0,50,0.00,,---,0.00,VWS V14.01,2013-07-27 21:17:00,
2013-07-27 17:22:00,75.7,56.3,29.44,WNW,283,0.0,0.0,51,0.00,,---,0.00,VWS V14.01,2013-07-27 21:22:00,
2013-07-27 17:27:00,75.0,56.2,29.44,WNW,284,0.0,0.0,52,0.00,,---,0.00,VWS V14.01,2013-07-27 21:27:00,
2013-07-27 17:32:00,74.5,55.2,29.44,WNW,284,0.0,0.0,51,0.00,,---,0.00,VWS V14.01,2013-07-27 21:32:00,
2013-07-27 17:37:00,74.1,55.4,29.44,West,276,0.0,0.0,52,0.00,,---,0.00,VWS V14.01,2013-07-27 21:37:00,
2013-07-27 17:42:00,73.9,55.2,29.44,NNW,334,0.0,0.0,52,0.00,,---,0.00,VWS V14.01,2013-07-27 21:42:00,
2013-07-27 17:47:00,73.9,55.2,29.44,NNW,334,0.0,0.0,52,0.00,,---,0.00,VWS V14.01,2013-07-27 21:47:00,
2013-07-27 17:52:00,73.9,55.2,29.44,NNW,334,0.0,0.0,52,0.00,,---,0.00,VWS V14.01,2013-07-27 21:52:00,
2013-07-27 17:57:00,74.1,55.4,29.44,NNW,334,0.0,0.0,52,0.00,,---,0.00,VWS V14.01,2013-07-27 21:57:00,
2013-07-27 18:02:00,74.3,56.1,29.44,WSW,256,0.0,0.0,53,0.00,,---,0.00,VWS V14.01,2013-07-27 22:02:00,
2013-07-27 18:07:00,74.5,55.7,29.44,WNW,284,0.0,0.0,52,0.00,,---,0.00,VWS V14.01,2013-07-27 22:07:00,
2013-07-27 18:12:00,74.3,55.0,29.44,NNW,328,0.0,0.0,51,0.00,,---,0.00,VWS V14.01,2013-07-27 22:12:00,
2013-07-27 18:17:00,74.3,55.6,29.44,SE,134,0.0,0.0,52,0.00,,---,0.00,VWS V14.01,2013-07-27 22:17:00,
2013-07-27 18:22:00,74.1,55.4,29.44,SW,230,0.0,0.0,52,0.00,,---,0.00,VWS V14.01,2013-07-27 22:22:00,
2013-07-27 18:27:00,73.8,55.1,29.44,SW,230,0.0,0.0,52,0.00,,---,0.00,VWS V14.01,2013-07-27 22:27:00,
2013-07-27 18:32:00,73.8,55.1,29.44,SSE,167,0.0,0.0,52,0.00,,---,0.00,VWS V14.01,2013-07-27 22:32:00,
2013-07-27 18:37:00,73.4,54.7,29.44,SSE,167,0.0,0.0,52,0.00,,---,0.00,VWS V14.01,2013-07-27 22:37:00,
2013-07-27 18:42:00,73.2,55.1,29.44,South,174,0.0,0.0,53,0.00,,---,0.00,VWS V14.01,2013-07-27 22:42:00,
2013-07-27 18:47:00,73.0,55.4,29.44,South,174,0.0,0.0,54,0.00,,---,0.00,VWS V14.01,2013-07-27 22:47:00,
2013-07-27 18:52:00,72.7,54.6,29.44,South,174,0.0,0.0,53,0.00,,---,0.00,VWS V14.01,2013-07-27 22:52:00,
2013-07-27 18:57:00,72.3,54.8,29.44,SSW,198,0.0,0.0,54,0.00,,---,0.00,VWS V14.01,2013-07-27 22:57:00,
2013-07-27 19:02:00,71.8,54.3,29.44,SSW,200,0.0,0.0,54,0.00,,---,0.00,VWS V14.01,2013-07-27 23:02:00,
2013-07-27 19:07:00,71.4,53.9,29.44,SSW,200,0.0,0.0,54,0.00,,---,0.00,VWS V14.01,2013-07-27 23:07:00,
2013-07-27 19:12:00,71.2,53.2,29.44,SSW,200,0.0,0.0,53,0.00,,---,0.00,VWS V14.01,2013-07-27 23:12:00,
2013-07-27 19:17:00,70.9,53.4,29.44,NNW,329,0.0,0.0,54,0.00,,---,0.00,VWS V14.01,2013-07-27 23:17:00,
2013-07-27 19:22:00,70.3,53.4,29.44,NNW,329,0.0,0.0,55,0.00,,---,0.00,VWS V14.01,2013-07-27 23:22:00,
2013-07-27 19:27:00,70.2,53.3,29.44,NNW,329,0.0,0.0,55,0.00,,---,0.00,VWS V14.01,2013-07-27 23:27:00,
2013-07-27 19:32:00,70.0,53.6,29.44,NNW,329,0.0,0.0,56,0.00,,---,0.00,VWS V14.01,2013-07-27 23:32:00,
2013-07-27 19:37:00,69.8,54.4,29.44,North,353,0.0,0.0,58,0.00,,---,0.00,VWS V14.01,2013-07-27 23:37:00,
2013-07-27 19:42:00,69.6,54.7,29.44,North,353,0.0,0.0,59,0.00,,---,0.00,VWS V14.01,2013-07-27 23:42:00,
2013-07-27 19:47:00,69.4,55.4,29.44,North,353,0.0,0.0,61,0.00,,---,0.00,VWS V14.01,2013-07-27 23:47:00,
2013-07-27 19:52:00,69.3,55.7,29.44,North,353,0.0,0.0,62,0.00,,---,0.00,VWS V14.01,2013-07-27 23:52:00,
2013-07-27 19:57:00,69.1,56.0,29.44,North,353,0.0,0.0,63,0.00,,---,0.00,VWS V14.01,2013-07-27 23:57:00,
2013-07-27 20:02:00,69.1,56.4,29.44,North,353,0.0,0.0,64,0.00,,---,0.00,VWS V14.01,2013-07-28 00:02:00,
2013-07-27 20:07:00,69.1,56.8,29.44,North,353,0.0,0.0,65,0.00,,---,0.00,VWS V14.01,2013-07-28 00:07:00,
2013-07-27 20:12:00,68.9,56.7,29.44,North,357,0.0,0.0,65,0.00,,---,0.00,VWS V14.01,2013-07-28 00:12:00,
2013-07-27 20:17:00,68.7,57.3,29.44,North,357,0.0,0.0,67,0.00,,---,0.00,VWS V14.01,2013-07-28 00:17:00,
2013-07-27 20:22:00,68.7,57.3,29.44,North,357,0.0,0.0,67,0.00,,---,0.00,VWS V14.01,2013-07-28 00:22:00,
2013-07-27 20:27:00,68.5,58.0,29.44,North,357,0.0,0.0,69,0.00,,---,0.00,VWS V14.01,2013-07-28 00:27:00,
2013-07-27 20:32:00,68.5,58.8,29.44,North,357,0.0,0.0,71,0.00,,---,0.00,VWS V14.01,2013-07-28 00:32:00,
2013-07-27 20:37:00,68.4,59.4,29.44,North,357,0.0,0.0,73,0.00,,---,0.00,VWS V14.01,2013-07-28 00:37:00,
2013-07-27 20:42:00,68.4,60.9,29.44,North,357,0.0,0.0,77,0.00,,---,0.00,VWS V14.01,2013-07-28 00:42:00,
2013-07-27 20:47:00,68.4,61.2,29.44,North,357,0.0,0.0,78,0.00,,---,0.00,VWS V14.01,2013-07-28 00:47:00,
2013-07-27 20:52:00,68.5,62.8,29.44,North,357,0.0,0.0,82,0.00,,---,0.00,VWS V14.01,2013-07-28 00:52:00,
2013-07-27 20:57:00,68.7,63.3,29.44,NNW,335,0.0,0.0,83,0.00,,---,0.00,VWS V14.01,2013-07-28 00:57:00,
2013-07-27 21:02:00,68.9,64.2,29.44,NNW,348,0.0,0.0,85,0.00,,---,0.00,VWS V14.01,2013-07-28 01:02:00,
2013-07-27 21:07:00,68.9,64.6,29.44,NNW,348,0.0,0.0,86,0.00,,---,0.00,VWS V14.01,2013-07-28 01:07:00,
2013-07-27 21:12:00,69.1,65.1,29.44,NNW,348,0.0,0.0,87,0.00,,---,0.00,VWS V14.01,2013-07-28 01:12:00,
2013-07-27 21:17:00,69.1,65.4,29.44,NNW,348,0.0,0.0,88,0.00,,---,0.00,VWS V14.01,2013-07-28 01:17:00,
2013-07-27 21:22:00,69.1,65.4,29.44,NNW,348,0.0,0.0,88,0.00,,---,0.00,VWS V14.01,2013-07-28 01:22:00,
2013-07-27 21:27:00,69.1,65.4,29.44,NNW,348,0.0,0.0,88,0.00,,---,0.00,VWS V14.01,2013-07-28 01:27:00,
2013-07-27 21:32:00,69.1,66.0,29.44,North,0,0.0,0.0,90,0.00,,---,0.00,VWS V14.01,2013-07-28 01:32:00,
2013-07-27 21:37:00,69.3,66.2,29.44,North,0,0.0,0.0,90,0.00,,---,0.00,VWS V14.01,2013-07-28 01:37:00,
2013-07-27 21:42:00,69.1,66.3,29.44,ENE,76,0.0,0.0,91,0.00,,---,0.00,VWS V14.01,2013-07-28 01:42:00,
2013-07-27 21:47:00,69.3,67.2,29.44,East,100,0.0,0.0,93,0.00,,---,0.00,VWS V14.01,2013-07-28 01:47:00,
2013-07-27 21:52:00,69.3,67.2,29.44,NNW,346,0.0,0.0,93,0.00,,---,0.00,VWS V14.01,2013-07-28 01:52:00,
2013-07-27 21:57:00,69.3,67.5,29.44,NNW,346,0.0,0.0,94,0.00,,---,0.00,VWS V14.01,2013-07-28 01:57:00,
2013-07-27 22:02:00,69.3,67.5,29.44,NNW,346,0.0,0.0,94,0.00,,---,0.00,VWS V14.01,2013-07-28 02:02:00,
2013-07-27 22:07:00,69.3,67.5,29.44,NNW,346,0.0,0.0,94,0.00,,---,0.00,VWS V14.01,2013-07-28 02:07:00,
2013-07-27 22:12:00,69.3,67.8,29.44,NNW,341,0.0,0.0,95,0.00,,---,0.00,VWS V14.01,2013-07-28 02:12:00,
2013-07-27 22:17:00,69.3,67.8,29.44,NNW,341,0.0,0.0,95,0.00,,---,0.00,VWS V14.01,2013-07-28 02:17:00,
2013-07-27 22:22:00,69.3,67.8,29.44,North,353,0.0,0.0,95,0.00,,---,0.00,VWS V14.01,2013-07-28 02:22:00,
2013-07-27 22:27:00,69.3,67.8,29.44,North,353,0.0,0.0,95,0.00,,---,0.00,VWS V14.01,2013-07-28 02:27:00,
2013-07-27 22:32:00,69.3,67.5,29.44,North,353,0.0,0.0,94,0.00,,---,0.00,VWS V14.01,2013-07-28 02:32:00,
2013-07-27 22:37:00,69.1,67.3,29.44,North,353,0.0,0.0,94,0.00,,---,0.00,VWS V14.01,2013-07-28 02:37:00,
2013-07-27 22:42:00,69.1,67.3,29.44,North,353,0.0,0.0,94,0.00,,---,0.00,VWS V14.01,2013-07-28 02:42:00,
2013-07-27 22:47:00,69.1,67.3,29.44,North,353,0.0,0.0,94,0.00,,---,0.00,VWS V14.01,2013-07-28 02:47:00,
2013-07-27 22:52:00,69.1,67.9,29.44,North,353,0.0,0.0,96,0.00,,---,0.00,VWS V14.01,2013-07-28 02:52:00,
2013-07-27 22:57:00,69.1,67.9,29.44,North,353,0.0,0.0,96,0.00,,---,0.00,VWS V14.01,2013-07-28 02:57:00,
2013-07-27 23:02:00,69.1,68.2,29.44,North,353,0.0,0.0,97,0.00,,---,0.00,VWS V14.01,2013-07-28 03:02:00,
2013-07-27 23:07:00,69.1,68.2,29.44,North,353,0.0,0.0,97,0.00,,---,0.00,VWS V14.01,2013-07-28 03:07:00,
2013-07-27 23:12:00,68.9,68.0,29.44,North,353,0.0,0.0,97,0.00,,---,0.00,VWS V14.01,2013-07-28 03:12:00,
2013-07-27 23:17:00,68.9,68.0,29.44,North,353,0.0,0.0,97,0.00,,---,0.00,VWS V14.01,2013-07-28 03:17:00,
2013-07-27 23:22:00,68.9,68.3,29.44,North,353,0.0,0.0,98,0.00,,---,0.00,VWS V14.01,2013-07-28 03:22:00,
2013-07-27 23:27:00,68.7,68.1,29.44,North,353,0.0,0.0,98,0.00,,---,0.00,VWS V14.01,2013-07-28 03:27:00,
2013-07-27 23:32:00,68.7,68.1,29.44,North,353,0.0,0.0,98,0.00,,---,0.00,VWS V14.01,2013-07-28 03:32:00,
2013-07-27 23:37:00,68.9,68.6,29.41,North,353,0.0,0.0,99,0.00,,---,0.00,VWS V14.01,2013-07-28 03:37:00,
2013-07-27 23:42:00,68.9,68.9,29.41,North,353,0.0,0.0,100,0.00,,---,0.00,VWS V14.01,2013-07-28 03:42:00,
2013-07-27 23:47:00,68.9,68.9,29.41,North,353,0.0,0.0,100,0.00,,---,0.00,VWS V14.01,2013-07-28 03:47:00,
2013-07-27 23:52:00,68.9,68.9,29.41,North,353,0.0,0.0,100,0.00,,---,0.00,VWS V14.01,2013-07-28 03:52:00,
2013-07-27 23:57:00,69.1,69.1,29.41,North,353,0.0,0.0,100,0.00,,---,0.00,VWS V14.01,2013-07-28 03:57:00,